Disclaimer

Please do not use the information listed here in-flight or in-navigation, as they are not provided to us by the airports but are provided by volunteers, so they might be outdated.

Search


Regions


Airport information page

No radio frequency information is available.

Airport informations:
Latitude: 45° 27' 45.60" N
Longitude: 018° 48' 36.56" E
Elevation: 290 feet - 88 meters
Operating hours: N/A
Operating agency: Civil government, landing fees and diplomatic clearance may be required
Timezone: UTC+1(+2DT)
Fuel: N/A

Runway information:
11/29 - 8199 x 148 feet< - >2499 x 45 meters

Recent METARs:
LDOS 221930Z 04011KT 3000 -SN OVC005 M02/M02 Q1006 R11/501/91
LDOS 222000Z 04010KT 3000 -SN OVC005 M02/M02 Q1006 R11/501/91
LDOS 222030Z 04011KT 2500 -SN OVC005 M02/M02 Q1005 R11/501/91

Airport on the map: